Location: Mount Kobau Star Party
(49.1167°N, 119.7333°W)
Time: 11:26:30
(UTC-07:00)

ARIANE 6 FM1 Upper Stage - Pass Details

Date: 13 April 2026
Orbit: 526 x 601 km, 62.0° (Epoch: 18 May)

Event Time Altitude Azimuth Distance (km) Brightness Sun altitude
Rises 22:33:52 0° 283° (WNW) 2,704 7.0 -23.3°
Reaches altitude 10° 22:36:50 10° 306° (NW) 1,799 6.2 -23.6°
Maximum altitude 22:39:21 16° 344° (NNW) 1,457 5.6 -23.9°
Drops below altitude 10° 22:41:51 10° 23° (NNE) 1,784 5.6 -24.2°
Sets 22:44:47 0° 46° (NE) 2,669 6.2 -24.4°
